Regional Weather Roundup
Issued by NWS

Home | Current Version | Previous Version | Graphics & Text | Print | Product List | Glossary On
Versions: 1 2 3 4 5 6 7 8 9 10 11 12 13 14 15 16 17 18 19 20 21 22 23 24 25 26 27 28 29 30 31 32 33 34 35 36 37 38 39 40 41 42 43 44 45 46 47 48 49 50
000
ASUS45 KSLC 300710
RWRUT

UTAH REGIONAL WEATHER ROUNDUP
NATIONAL WEATHER SERVICE SALT LAKE CITY UT
100 AM MDT TUE SEP 30 2014

UTZ001>011-023>025-300800-

NORTHERN UTAH

CITY           SKY/WX    TMP DP  RH WIND       PRES   REMARKS
HILL AFB       CLOUDY    51  50  97 SE9       30.01S
LOGAN          NOT AVBL
OGDEN          CLOUDY    52  48  86 SE8       30.00R
PROVO AIRPORT  CLOUDY    52  43  71 SE7       30.03F
SALT LAKE CITY CLOUDY    52  47  83 SE8       29.99F
VERNAL         CLOUDY    49  45  86 CALM      30.02S
WENDOVER       CLOUDY    55  41  58 W6        30.01S
HEBER CITY     CLOUDY    46  43  87 CALM      30.04S
WEST JORDAN    MOCLDY    48  46  93 S6        30.01F

$$

UTZ012>022-026-027-300800-

SOUTHERN UTAH

CITY           SKY/WX    TMP DP  RH WIND       PRES   REMARKS
BRYCE CANYON   CLOUDY    45  38  76 CALM      30.14F
CEDAR CITY     CLOUDY    53  41  63 SW5       30.07S
MILFORD        MOCLDY    50  43  77 SE5       30.03F
MOAB/CYNLANDS  PTCLDY    50  46  86 E3        30.01S
PRICE          CLOUDY    51  43  74 E3        30.05F
ST GEORGE      CLOUDY    64  41  42 S5        29.99S
KANAB          CLOUDY    50  43  76 N5        30.10S

$$

REGIONAL REPORTS     COLORADO/ARIZONA

CITY           SKY/WX    TMP DP  RH WIND       PRES   REMARKS
CRAIG, CO      MOCLDY    45  38  76 SW16G23   30.03F
GRAND JUNCTION PTCLDY    46  43  89 SE8       30.06F
RIFLE          CLOUDY    47  44  90 W3        30.07F
MONTROSE       PTCLDY    40  40 100 S6        30.12S
CORTEZ         CLEAR     43  40  89 NE7       30.09F
PAGE, AZ       NOT AVBL
GRAND CANYON   CLEAR     37  35  92 CALM      30.14S
KINGMAN        NOT AVBL
FLAGSTAFF      CLEAR     39  33  79 CALM      30.15S

$$

REGIONAL REPORTS    NEVADA/IDAHO/WYOMING

CITY           SKY/WX    TMP DP  RH WIND       PRES   REMARKS
LAS VEGAS, NV  CLEAR     71  39  31 S10       29.89S
ELY            CLOUDY    47  41  80 CALM      30.11F
ELKO           PTCLDY    45  42  89 SE3       30.06F
POCATELLO, ID  CLOUDY    51  50  96 SW17      29.97S
BURLEY         LGT RAIN  51  48  89 W9        29.96F
EVANSTON, WY   MOCLDY    40  37  89 SW8       30.06S WCI  34
ROCK SPRINGS   PTCLDY    43  37  79 W18       30.01F

$$



USA.gov is the U.S. government's official web portal to all federal, state and local government web resources and services.